Waarnemingen

Advertentie
Mijn weer
F3, Nederland (6239): temperatuur & dauwpunt: 15.01.2017 11:00:00 - 21.01.2017 11:00:00 (CET)F3, Nederland (6239): windsnelheid & windstoten: 15.01.2017 11:00:00 - 21.01.2017 11:00:00 (CET)F3, Nederland (6239): windrichting: 15.01.2017 11:00:00 - 21.01.2017 11:00:00 (CET)F3, Nederland (6239): luchtdruk: 15.01.2017 11:00:00 - 21.01.2017 11:00:00 (CET)F3, Nederland (6239): zicht: 15.01.2017 11:00:00 - 21.01.2017 11:00:00 (CET)
Datum & Tijd tt [°C] td [°C] ff [km/u] ff [kn] fx [km/u] fx [kn] dd ppp [hPa] vv [km]
21.01.2017 11:00:00 6,2 2,2 9 5 18 10 ZO 1032,7 10
21.01.2017 10:00:00 6,2 2,6 8 4 14 8 O 1032,9 10
21.01.2017 09:00:00 6,1 2,9 4 2 11 6 O 1032,8 50
21.01.2017 08:00:00 6,1 3,1 11 6 14 8 O 1032,6 10
21.01.2017 07:00:00 6,2 3,1 7 4 14 8 ONO 1032,8 43
21.01.2017 06:00:00 6,3 3,0 5 3 11 6 O 1033,0 10
21.01.2017 05:00:00 6,4 3,1 4 2 14 8 - 1033,1 10
21.01.2017 04:00:00 6,4 3,0 5 3 14 8 ONO 1033,5 10
21.01.2017 03:00:00 6,5 3,0 5 3 11 6 ONO 1033,8 10
21.01.2017 02:00:00 6,4 2,7 5 3 11 6 N 1033,9 10
21.01.2017 01:00:00 6,4 3,0 5 3 11 6 NNW 1034,4 10
21.01.2017 00:00:00 6,4 3,3 5 3 7 4 NW 1034,6 10
20.01.2017 23:00:00 6,5 3,3 5 3 - - - 1034,8 10
20.01.2017 22:00:00 6,5 3,3 5 3 14 8 NNW 1034,8 10
20.01.2017 21:00:00 6,5 3,1 9 5 11 6 NW 1035,0 10
20.01.2017 20:00:00 6,5 3,3 5 3 11 6 NNW 1034,8 10
20.01.2017 19:00:00 6,4 3,4 11 6 - - NW 1034,8 10
20.01.2017 18:00:00 6,3 3,0 9 5 14 8 NNW 1034,9 10
20.01.2017 17:00:00 6,2 2,6 11 6 25 14 WNW 1035,1 10
20.01.2017 16:00:00 6,1 2,6 8 4 18 10 WNW 1035,0 10
20.01.2017 15:00:00 6,1 2,7 8 4 18 10 - 1035,1 10
20.01.2017 14:00:00 6,1 2,5 21 11 22 12 NW 1035,3 10
20.01.2017 13:00:00 6,4 3,1 15 8 22 12 WNW 1035,4 10
20.01.2017 12:00:00 6,6 3,0 16 9 18 10 W 1035,9 10
20.01.2017 11:00:00 6,7 2,6 16 9 18 10 W 1036,1 10
20.01.2017 10:00:00 6,8 2,3 16 9 29 16 WNW 1035,7 10
20.01.2017 09:00:00 6,8 2,5 13 7 22 12 WNW 1035,6 10
20.01.2017 08:00:00 6,7 3,0 18 10 22 12 WNW 1035,4 10
20.01.2017 07:00:00 6,9 3,2 15 8 22 12 WNW 1035,3 10
20.01.2017 06:00:00 6,9 2,8 18 10 22 12 W 1035,5 10
20.01.2017 05:00:00 6,8 2,8 15 8 22 12 WNW 1035,8 10
20.01.2017 04:00:00 6,6 2,9 18 10 22 12 WNW 1035,9 10
20.01.2017 03:00:00 6,6 2,7 15 8 22 12 W 1036,0 10
20.01.2017 02:00:00 6,8 2,8 21 11 25 14 WNW 1036,1 10
20.01.2017 01:00:00 6,9 3,0 16 9 22 12 W 1036,4 10
20.01.2017 00:00:00 6,9 3,2 16 9 22 12 W 1036,5 10
19.01.2017 23:00:00 7,0 2,5 15 8 18 10 W 1036,6 10
19.01.2017 22:00:00 6,9 2,5 9 5 18 10 W 1036,6 10
19.01.2017 21:00:00 6,8 2,9 15 8 18 10 W 1036,6 10
19.01.2017 20:00:00 6,9 3,1 11 6 14 8 WZW 1036,4 10
19.01.2017 19:00:00 6,9 2,8 11 6 18 10 WNW 1036,3 10
19.01.2017 18:00:00 6,9 3,0 18 10 22 12 WNW 1036,4 10
19.01.2017 17:00:00 7,0 3,4 16 9 22 12 WNW 1036,2 10
19.01.2017 16:00:00 7,1 3,5 14 8 25 14 W 1036,1 48
19.01.2017 15:00:00 6,8 4,2 22 12 22 12 WNW 1036,0 10
19.01.2017 14:00:00 6,5 5,2 16 9 29 16 - 1036,2 7
19.01.2017 13:00:00 6,5 5,7 16 9 22 12 NW 1036,6 8
19.01.2017 12:00:00 6,9 6,2 24 13 29 16 W 1036,8 8
19.01.2017 11:00:00 6,9 6,3 26 14 25 14 WZW 1036,8 4,9
19.01.2017 10:00:00 6,9 6,2 24 13 32 18 WZW 1036,8 5
19.01.2017 09:00:00 7,0 6,3 18 10 29 16 WZW 1036,5 10
19.01.2017 08:00:00 6,9 6,3 18 10 22 12 WZW 1036,3 6
19.01.2017 07:00:00 6,9 6,0 18 10 22 12 WZW 1036,0 13
19.01.2017 06:00:00 6,7 5,9 18 10 22 12 WZW 1036,1 21
19.01.2017 05:00:00 6,8 6,1 18 10 18 10 WZW 1036,2 10
19.01.2017 04:00:00 6,8 6,4 18 10 22 12 WZW 1036,2 4,7
19.01.2017 03:00:00 6,7 6,2 18 10 22 12 W 1036,4 5
19.01.2017 02:00:00 6,6 6,0 22 12 25 14 WZW 1036,3 3,6
19.01.2017 01:00:00 6,6 6,2 24 13 25 14 W 1036,6 3,5
19.01.2017 00:00:00 6,6 6,1 26 14 25 14 W 1036,6 4,2
18.01.2017 23:00:00 6,5 6,1 28 15 29 16 W 1036,7 2,1
18.01.2017 22:00:00 6,4 5,9 29 16 29 16 W 1036,5 1,9
18.01.2017 21:00:00 6,4 5,9 29 16 29 16 W 1036,7 2,2
18.01.2017 20:00:00 6,3 5,7 29 16 32 18 W 1036,8 4,1
18.01.2017 19:00:00 6,3 5,7 34 18 32 18 WZW 1036,5 3,2
18.01.2017 18:00:00 6,3 5,4 34 18 32 18 WZW 1036,5 4,7
18.01.2017 17:00:00 6,2 4,9 34 18 32 18 WZW 1036,7 6
18.01.2017 16:00:00 6,2 4,5 35 19 36 19 WZW 1036,6 10
18.01.2017 15:00:00 6,0 4,2 37 20 36 19 WZW 1036,7 10
18.01.2017 14:00:00 6,2 3,3 39 21 40 21 WZW 1036,4 10
18.01.2017 13:00:00 6,3 2,7 39 21 40 21 WZW 1036,7 10
18.01.2017 12:00:00 6,3 1,9 41 22 40 21 WZW 1037,0 10
18.01.2017 11:00:00 6,4 1,0 41 22 40 21 WZW 1037,1 10
18.01.2017 10:00:00 6,3 -1,3 42 23 40 21 WZW 1036,9 10
18.01.2017 09:00:00 6,3 -0,2 41 22 40 21 WZW 1036,4 10
18.01.2017 08:00:00 6,2 -1,1 41 22 40 21 WZW 1036,1 10
18.01.2017 07:00:00 6,0 -0,6 42 23 40 21 WZW 1035,8 10
18.01.2017 06:00:00 6,0 -0,5 41 22 40 21 WZW 1035,9 10
18.01.2017 05:00:00 6,0 0,9 41 22 40 21 WZW 1036,4 10
18.01.2017 04:00:00 5,9 1,2 41 22 40 21 WZW 1036,4 10
18.01.2017 03:00:00 5,9 0,3 42 23 40 21 WZW 1036,5 10
18.01.2017 02:00:00 5,7 0,8 39 21 40 21 ZW 1036,4 10
18.01.2017 01:00:00 5,7 0,3 37 20 36 19 WZW 1036,8 10
18.01.2017 00:00:00 5,6 -0,7 37 20 36 19 ZW 1036,8 10
17.01.2017 23:00:00 5,6 -0,9 35 19 36 19 ZW 1037,0 10
17.01.2017 22:00:00 5,6 -0,7 39 21 40 21 ZW 1036,9 10
17.01.2017 21:00:00 5,4 -2,0 35 19 36 19 ZW 1036,8 10
17.01.2017 20:00:00 5,3 -2,5 35 19 36 19 ZW 1036,5 10
17.01.2017 19:00:00 5,3 -1,6 35 19 36 19 ZW 1036,5 10
17.01.2017 18:00:00 4,9 -2,6 35 19 36 19 ZW 1036,2 10
17.01.2017 17:00:00 4,8 -2,5 31 17 36 19 ZW 1036,4 10
17.01.2017 16:00:00 4,8 -2,5 34 18 36 19 ZW 1036,3 10
17.01.2017 15:00:00 4,8 -2,9 31 17 32 18 ZW 1036,1 10
17.01.2017 14:00:00 4,8 -3,2 31 17 32 18 ZW 1036,3 10
17.01.2017 13:00:00 4,8 -3,0 28 15 29 16 ZW 1036,9 10
17.01.2017 12:00:00 4,7 -3,7 29 16 29 16 ZW 1036,5 10
17.01.2017 11:00:00 4,7 -2,9 26 14 29 16 ZW 1036,4 10
17.01.2017 10:00:00 4,6 -2,2 26 14 29 16 ZW 1036,2 10
17.01.2017 09:00:00 4,5 -2,2 26 14 29 16 ZW 1035,8 10
17.01.2017 08:00:00 4,5 -1,7 24 13 25 14 ZW 1035,0 10
17.01.2017 07:00:00 4,5 -3,2 22 12 - - ZW 1034,7 10
17.01.2017 06:00:00 4,4 -3,3 21 11 25 14 ZW 1034,7 10
17.01.2017 05:00:00 4,4 -3,0 21 11 25 14 ZW 1034,7 10
17.01.2017 04:00:00 4,5 -2,5 18 10 - - Z 1034,4 10
17.01.2017 03:00:00 4,5 -3,2 16 9 22 12 ZZW 1034,3 10
17.01.2017 02:00:00 4,4 -4,0 15 8 22 12 Z 1033,8 10
17.01.2017 01:00:00 4,4 -4,0 15 8 18 10 Z 1033,5 10
17.01.2017 00:00:00 4,3 -5,0 15 8 14 8 ZZO 1033,7 10
16.01.2017 23:00:00 4,3 -6,2 11 6 14 8 ZO 1033,3 10
16.01.2017 22:00:00 4,2 -6,0 11 6 14 8 OZO 1033,2 10
16.01.2017 21:00:00 4,2 -5,5 11 6 14 8 ZZO 1032,5 10
16.01.2017 20:00:00 4,2 -6,0 13 7 18 10 ZZO 1032,0 10
16.01.2017 19:00:00 4,2 -4,7 15 8 18 10 ZO 1031,1 10
16.01.2017 18:00:00 4,3 -4,3 16 9 18 10 ZZO 1030,5 10
16.01.2017 17:00:00 4,3 -5,4 15 8 25 14 ZZO 1030,1 10
16.01.2017 16:00:00 4,4 -5,3 18 10 18 10 ZO 1029,8 10
16.01.2017 15:00:00 4,9 -4,8 18 10 22 12 ZO 1029,3 10
16.01.2017 14:00:00 4,6 -5,1 21 11 22 12 ZO 1028,9 10
16.01.2017 13:00:00 4,8 -4,4 18 10 22 12 ZO 1028,8 10
16.01.2017 12:00:00 4,6 -3,5 21 11 22 12 ZO 1028,6 10
16.01.2017 11:00:00 4,6 -2,1 13 7 18 10 ZZO 1028,2 10
16.01.2017 10:00:00 4,4 -2,3 13 7 32 18 ZO 1027,8 10
16.01.2017 09:00:00 4,3 -1,7 15 8 22 12 NO 1027,2 10
16.01.2017 08:00:00 4,5 -4,5 18 10 22 12 NO 1026,6 10
16.01.2017 07:00:00 4,6 -5,4 18 10 25 14 NO 1026,1 10
16.01.2017 06:00:00 4,6 -6,3 22 12 29 16 NNO 1025,5 10
16.01.2017 05:00:00 4,7 -4,8 16 9 29 16 - 1025,5 10
16.01.2017 04:00:00 4,7 -4,1 22 12 29 16 NNO 1025,3 10
16.01.2017 03:00:00 4,8 -3,9 24 13 29 16 NO 1024,9 10
16.01.2017 02:00:00 5,1 -4,1 24 13 29 16 NO 1024,2 10
16.01.2017 01:00:00 4,6 -1,9 8 4 22 12 - 1024,7 10
16.01.2017 00:00:00 5,0 -1,9 15 8 22 12 - 1024,5 10
15.01.2017 23:00:00 5,2 -1,7 13 7 25 14 - 1024,1 10
15.01.2017 22:00:00 5,3 -2,4 9 5 22 12 N 1023,5 10
15.01.2017 21:00:00 4,7 0,5 13 7 25 14 NNW 1023,2 10
15.01.2017 20:00:00 3,5 0,3 16 9 25 14 NW 1022,6 10
15.01.2017 19:00:00 4,5 0,5 22 12 25 14 NO 1022,1 10
15.01.2017 18:00:00 5,2 -0,9 8 4 22 12 - 1021,6 10
15.01.2017 17:00:00 5,0 -1,1 18 10 25 14 NNO 1021,1 10
15.01.2017 16:00:00 5,1 -0,2 8 4 18 10 - 1020,4 10
15.01.2017 15:00:00 5,2 -1,4 9 5 18 10 NNW 1019,9 10
15.01.2017 14:00:00 5,1 -2,0 9 5 14 8 - 1019,6 10
15.01.2017 13:00:00 4,6 -0,8 5 3 18 10 - 1019,3 10
15.01.2017 12:00:00 4,7 -0,6 8 4 32 18 - 1019,0 10
15.01.2017 11:00:00 4,9 -1,9 16 9 22 12 NW 1018,8 10

tt = temperatuur
td = dauwpunt
ff = windsnelheid
fx = windstoten
dd = windrichting
ppp = luchtdruk
vv = zicht

Weerstations in de omgeving